This is the latest recevied weather packets stored in our database for station/object AF5AA. If no packets are shown the sender has not sent any weather packets the latest 10 day(s).
| Time | Temp. | Humidity | Pressure | Rain* | Wind** | Luminosity | Snow |
|---|---|---|---|---|---|---|---|
| 1777867964 | 15.56° C | 87% | 1016.5 hPa | 0 mm | - | 0 W/m² | - |
| 1777867660 | 15.56° C | 87% | 1016.6 hPa | 0 mm | - | 0 W/m² | - |
| 1777867358 | 15.56° C | 87% | 1016.5 hPa | 0 mm | - | 0 W/m² | - |
| 1777867054 | 15.56° C | 86% | 1016.5 hPa | 0 mm | - | 0 W/m² | - |
| 1777866751 | 15.56° C | 86% | 1016.6 hPa | 0 mm | - | 0 W/m² | - |
| 1777866449 | 15.56° C | 85% | 1016.7 hPa | 0 mm | - | 0 W/m² | - |
| 1777866146 | 16.11° C | 84% | 1016.6 hPa | 0 mm | - | 0 W/m² | - |
| 1777865843 | 16.11° C | 82% | 1016.6 hPa | 0 mm | - | 0 W/m² | - |
| 1777865541 | 16.11° C | 83% | 1016.6 hPa | 0 mm | - | 0 W/m² | - |
| 1777865237 | 16.11° C | 83% | 1016.7 hPa | 0 mm | - | 0 W/m² | - |
| 1777864935 | 16.11° C | 82% | 1016.8 hPa | 0 mm | - | 0 W/m² | - |
| 1777864631 | 16.11° C | 82% | 1016.6 hPa | 0 mm | - | 0 W/m² | - |
| 1777864328 | 16.67° C | 82% | 1016.7 hPa | 0 mm | - | 0 W/m² | - |
| 1777864024 | 16.67° C | 81% | 1016.8 hPa | 0 mm | - | 0 W/m² | - |
| 1777863722 | 16.67° C | 81% | 1016.8 hPa | 0 mm | - | 0 W/m² | - |
| 1777863418 | 16.67° C | 82% | 1016.5 hPa | 0 mm | - | 0 W/m² | - |
| 1777863115 | 16.67° C | 82% | 1017 hPa | 0 mm | - | 0 W/m² | - |
| 1777862812 | 17.22° C | 82% | 1016.6 hPa | 0 mm | - | 0 W/m² | - |
| 1777862508 | 17.22° C | 81% | 1016.6 hPa | 0 mm | - | 0 W/m² | - |
| 1777862205 | 17.22° C | 80% | 1016.6 hPa | 0 mm | - | 0 W/m² | - |
| 1777861901 | 17.22° C | 79% | 1016.6 hPa | 0 mm | - | 0 W/m² | - |
| 1777861598 | 17.78° C | 79% | 1016.6 hPa | 0 mm | - | 0 W/m² | - |
| 1777861293 | 17.78° C | 81% | 1016.3 hPa | 0 mm | - | 0 W/m² | - |
| 1777860992 | 17.78° C | 77% | 1016.6 hPa | 0 mm | - | 0 W/m² | - |
| 1777860688 | 17.78° C | 76% | 1016.6 hPa | 0 mm | - | 0 W/m² | - |
* Rain latest hour (hover to see other rain measurements)
** Current wind speed in m/s (hover to see current wind gust speed)